User: anonymous   Login
Location: Newark
(55.5030°N, 22.7200°E)
Time: 04:21:24
(UTC+00:00)
Language:

Explorer 7 - Orbit

View from above orbital plane
View from above orbital plane
View from above satellite
View from above satellite

Ground track
Ground track

The orbit data is extracted from the following two-line orbital elements,

1    22U 59009A   20148.04710324 -.00000016 +00000-0 +22006-4 0  9995
2    22 050.2832 202.5016 0139670 177.0333 183.1473 14.95140098467175
Epoch (UTC): 27 May 2020 01:07:49
Eccentricity: 0.0139670
inclination: 50.2832°
perigee height: 485 km
apogee height: 679 km
right ascension of ascending node: 202.5016°
argument of perigee: 177.0333°
revolutions per day: 14.95140098
mean anomaly at epoch: 183.1473°
orbit number at epoch: 46717

The dashed part of the orbit path shows where the satellite is in the earth's shadow,  

DLR